Home > Weather > Antioch > Past weeks

Flag for USA Past Weather in Antioch, California, USA — Yesterday and Last 2 Weeks

Now
58 °F

Clear.


Feels Like: 58 °F
Forecast: 57 / 87 °F
Wind: 3 mph from West

Location: Buchanan Field

Current Time: Aug 25, 2016 at 2:57:45 AM

Latest Report: Aug 25, 2016 at 1:53 AM


Visibility: 10 mi

Pressure: 29.90 "Hg

Humidity: 75%

Dew Point: 50 °F

Location of AntiochLocation

Past Weather in Antioch — Graph

°F

Antioch Temperature Yesterday

Maximum temperature yesterday: 85 °F (at 2:53 PM)
Minimum temperature yesterday: 57 °F (at 5:53 AM)
Average temperature yesterday: 68 °F

High & Low Weather Summary for the Past Weeks

 TemperatureHumidityPressure
High97 °F (Aug 13, 3:53 PM)87% (Aug 16, 5:53 AM)30.05 "Hg (Aug 16, 5:53 AM)
Low55 °F (Aug 15, 4:53 AM)15% (Aug 16, 4:53 PM)29.70 "Hg (Aug 17, 4:53 PM)
Average70 °F55%29.86 "Hg
* Reported Aug 10 12:53 AM — Aug 25 12:53 AM, Antioch, Weather by CustomWeather, © 2016

Note: Actual official high and low records may vary slightly from our data, if they occured in-between our weather recording intervals... More about our weather records

Advertising

Antioch Weather History for the Previous 24 Hours

Scroll right to see more
 ConditionsComfort  
Time TempWeatherWind HumidityBarometerVisibility
12:53 AM
Thu, Aug 25
59 °FClear.8 mph75%29.90 "Hg10 mi
11:53 PM
Wed, Aug 24
60 °FClear.12 mph69%29.91 "Hg10 mi
10:53 PM62 °FClear.8 mph65%29.91 "Hg10 mi
9:53 PM65 °FClear.7 mph56%29.91 "Hg10 mi
8:53 PM68 °FClear.12 mph51%29.90 "Hg10 mi
7:53 PM73 °FSunny.13 mph40%29.90 "Hg10 mi
6:53 PM79 °FSunny.12 mph35%29.88 "Hg10 mi
5:53 PM83 °FSunny.13 mph33%29.89 "Hg10 mi
4:53 PM85 °FSunny.10 mph31%29.90 "Hg10 mi
3:53 PM85 °FSunny.13 mph27%29.92 "Hg10 mi
2:53 PM85 °FSunny.13 mph29%29.94 "Hg10 mi
1:53 PM83 °FSunny.9 mph32%29.97 "Hg10 mi
12:53 PM77 °FSunny.14 mph42%30.00 "Hg10 mi
11:53 AM73 °FSunny.12 mph50%30.03 "Hg10 mi
10:53 AM70 °FPassing clouds.7 mph53%30.04 "Hg10 mi
9:53 AM66 °FSunny.6 mph61%30.05 "Hg10 mi
8:53 AM62 °FScattered clouds.5 mph67%30.05 "Hg10 mi
7:53 AM59 °FScattered clouds.5 mph75%30.04 "Hg10 mi
6:53 AM57 °FPassing clouds.6 mph81%30.03 "Hg10 mi
5:53 AM57 °FClear.7 mph81%30.02 "Hg10 mi
4:53 AM58 °FClear.No wind78%30.01 "Hg10 mi
3:53 AM58 °FClear.7 mph78%30.01 "Hg10 mi
2:53 AM58 °FClear.5 mph78%30.02 "Hg10 mi
Weather by CustomWeather, © 2016

See weather overviewHow to use our weather pages